This demonstration page uses our WeatherBlox Daily Observations layout. Learn more.

Left ArrowRight Arrow

34.74481, -87.66753

Hourly Observations for July 25, 2019

Temp ( °F °C ) Dew Point ( °F °C ) Humidity (%) Winds ( mph kmh ) Pressure ( in mb ) Visibility ( mi km ) Precip ( " mm )
12:53 am 00:53 Clear 70 21.1 57 13.9 64 64 NE 8 13 30.07 1018 10 16 0.00 0.00
1:53 am 01:53 Clear 69 20.6 57 13.9 66 66 NE 7 11 30.06 1018 10 16 0.00 0.00
2:53 am 02:53 Clear 66 18.9 57 13.9 73 73 E 3 6 30.06 1018 10 16 0.00 0.00
3:53 am 03:53 Clear 63 17.2 57 13.9 81 81 Calm 30.07 1018 10 16 0.00 0.00
4:53 am 04:53 Clear 63 17.2 58 14.4 84 84 Calm 30.09 1019 10 16 0.00 0.00
6:53 am 06:53 Sunny 66 18.9 61 16.1 84 84 Calm 30.13 1020 10 16 0.00 0.00
7:53 am 07:53 Sunny 71 21.7 59 15 66 66 ENE 5 7 30.14 1021 10 16 0.00 0.00
8:53 am 08:53 Sunny 74 23.3 59 15 60 60 E 6 9 30.15 1021 10 16 0.00 0.00
9:53 am 09:53 Sunny 78 25.6 60 15.6 54 54 E 6 9 30.15 1021 10 16 0.00 0.00
10:53 am 10:53 Sunny 81 27.2 61 16.1 51 51 ENE 5 7 30.14 1021 10 16 0.00 0.00
11:53 am 11:53 Sunny 83 28.3 60 15.6 46 46 NE 8 13 30.14 1021 10 16 0.00 0.00
12:53 pm 12:53 Sunny 85 29.4 57 13.9 39 39 ENE 6 9 30.13 1020 10 16 0.00 0.00
1:53 pm 13:53 Sunny 86 30 58 14.4 39 39 NE 9 15 30.12 1020 10 16 0.00 0.00
2:53 pm 14:53 Sunny 86 30 57 13.9 37 37 VRB 5 7 30.10 1019 10 16 0.00 0.00
4:53 pm 16:53 Sunny 87 30.6 57 13.9 36 36 ESE 6 9 30.09 1019 10 16 0.00 0.00
5:53 pm 17:53 Sunny 86 30 57 13.9 37 37 Calm 30.09 1019 10 16 0.00 0.00
6:53 pm 18:53 Sunny 84 28.9 62 16.7 48 48 ENE 3 6 30.10 1019 10 16 0.00 0.00
7:53 pm 19:53 Sunny 78 25.6 64 17.8 62 62 Calm 30.11 1020 10 16 0.00 0.00
8:53 pm 20:53 Partly Cloudy 76 24.4 64 17.8 67 67 NNE 3 6 30.12 1020 10 16 0.00 0.00
9:53 pm 21:53 Clear 75 23.9 65 18.3 71 71 NNE 5 7 30.13 1020 10 16 0.00 0.00
10:53 pm 22:53 Mostly Cloudy 75 23.9 64 17.8 69 69 NE 5 7 30.14 1021 10 16 0.00 0.00
11:53 pm 23:53 Clear 71 21.7 66 18.9 84 84 Calm 30.14 1021 10 16 0.00 0.00

Powered by AerisWeather